Regional Weather Roundup
Issued by NWS

Home | Current Version | Previous Version | Graphics & Text | Print | Product List | Glossary On
Versions: 1 2 3 4 5 6 7 8 9 10 11 12 13 14 15 16 17 18 19 20 21 22 23 24 25 26 27 28 29 30 31 32 33 34 35 36 37 38 39 40 41 42 43 44 45 46 47 48 49 50
000
ASUS43 KTOP 241259
RWRKS

WEATHER ROUNDUP FOR KANSAS
NATIONAL WEATHER SERVICE GOODLAND KS
800 AM CDT FRI OCT 24 2014

NOTE:  "FAIR" INDICATES FEW OR NO CLOUDS BELOW 12,000 FEET WITH NO
SIGNIFICANT WEATHER AND/OR OBSTRUCTIONS TO VISIBILITY.

KSZ001>006-013>018-027>032-041>047-241400-
NORTHWEST KANSAS

CITY           SKY/WX    TMP DP  RH WIND       PRES   REMARKS
GOODLAND       MOCLDY    50  42  74 W10       30.07S
HAYS           PTCLDY    54  48  82 S3        30.01F
HILL CITY      MOCLDY    51  50  96 W6        30.00F FOG
RUSSELL        CLEAR     56  55  97 S10       30.00S FOG
$$

KSZ061>065-074>080-084>089-241400-
SOUTHWEST KANSAS

CITY           SKY/WX    TMP DP  RH WIND       PRES   REMARKS
DODGE CITY     CLEAR     53  51  93 S9        30.06S FOG
ELKHART          N/A     55  46  71 W9          N/A
GARDEN CITY    FOG       46  46 100 SW7       30.05F VSB 1/4
GREAT BEND     CLEAR     55  52  88 S7        30.03F
LIBERAL        CLEAR     52  45  76 CALM      30.10R
$$

KSZ066>073-081>083-090>101-241400-
SOUTHEAST KANSAS

CITY           SKY/WX    TMP DP  RH WIND       PRES   REMARKS
CHANUTE        MOCLDY    56  55  97 S8        30.08S
COFFEYVILLE    MOCLDY    56  54  93 S7        30.09S
HUTCHINSON     CLOUDY    59  57  93 S7        30.05S FOG
NEWTON         CLEAR     57  52  82 S9        30.07R
PARSONS        MOCLDY    56  55  97 S3        30.10S
WICHITA INTL   PTCLDY    57  55  93 S7        30.05S FOG
WICHITA JABRA  CLEAR     57  56  96 S8        30.05S FOG
WINFIELD       CLEAR     56  56 100 S9        30.08S
$$

KSZ007>012-019>026-033>040-048>060-102>105-241400-
NORTHEAST KANSAS

CITY           SKY/WX    TMP DP  RH WIND       PRES   REMARKS
CONCORDIA      CLEAR     57  57 100 S6        29.99S FOG
EMPORIA        MOCLDY    56  56 100 S9        30.05S FOG
LAWRENCE       PTCLDY    55  53  93 SE6       30.04F FOG
MANHATTAN      PTCLDY    56  55  97 SW5       30.01F FOG
OLATHE IND     PTCLDY    53  53 100 S6        30.06S FOG
OLATHE EXE     FOG       53  53 100 S3        30.06S VSB 1
SALINA         CLEAR     58  56  93 S7        30.02S FOG
TOPEKA BILLARD MOCLDY    59  58  96 S5        30.03S FOG
TOPEKA FORBES  FOG       58  57  97 S10       30.02F VSB 1
$$



USA.gov is the U.S. government's official web portal to all federal, state and local government web resources and services.